Starlink 2436

operational
NORAD ID: 48101 Int'l Des: 2021-027 Owner: SPXS Country: US Constellation: starlink
LEOCIRCULARSTARLINK_TYPE

Über Starlink 2436

Beschreibung wird geladen...

Live-Position

3D-Globus wird geladen...

Nächste Überflüge

Höhenverlauf

Altitude vs Time

uPlot chart will show altitude changes over time

Zweizeiliger Elementsatz

1 48101U 21027K 25350.79023378 .00001840 00000-0 14241-3 0 9998
2 48101 53.0540 173.9734 0001474 102.0502 258.0652 15.06398694260066
Epoch: 16. Dez. 2025 • Age: 23 hours

Aktueller Status

Höhe 550.8 km
Geschwindigkeit 7.59 km/s
Subsatellitenpunkt -13.41°S, 1.38°E
Startdatum 7. Apr. 2021
Alter 4.6 years
Typ internet

Technische Details

Klassifizierung Payload
Masse 260.00 kg
Trockenmasse 248.00 kg
Gesamtmasse 260.00 kg
Länge 0.20 m
Durchmesser 2.80 m
Spannweite 9.00 m
Form Box + pan
Hersteller SPXS
Bus-Typ Starlink
Phasenstatus In Orbit
Besitzer/Staat SPXS/US

Große Konstellationen

Loading constellations...